Skip Page Navigation
NASA JPL Caltech
NASA Logo - Jet Propulsion Laboratory + View the NASA Portal
+ Near-Earth Object (NEO) Program
Search JPL
JPL Home Earth Solar System Stars & Galaxies Technology
JPL Solar System Dynamics
BODIES ORBITS EPHEMERIDES TOOLS PHYSICAL DATA DISCOVERY FAQ SITE MAP
JPL Small-Body Database Browser
Search: [ help ]  
163 Erigone
Classification: Main-belt Asteroid          SPK-ID: 2000163
Ephemeris | Orbit Diagram | Orbital Elements | Physical Parameters | Discovery Circumstances ]

[ show orbit diagram ]
Orbital Elements at Epoch 2456400.5 (2013-Apr-18.0) TDB
Reference: JPL 81 (heliocentric ecliptic J2000)
 Element Value Uncertainty (1-sigma)   Units 
e .1911730498183822 4.3562e-08  
a 2.36687689682134 5.802e-09 AU
q 1.914393821911336 1.0345e-07 AU
i 4.813670382230261 4.9334e-06 deg
node 160.19598812 4.3035e-05 deg
peri 298.346563652239 4.4399e-05 deg
M 315.1845393411348 1.175e-05 deg
tp 2456566.072153246060
(2013-Sep-30.57215325)
4.3448e-05 JED
period 1330.031517968804
3.64
4.8905e-06
1.339e-08
d
yr
n .2706702774606307 9.9525e-10 deg/d
Q 2.819359971731344 6.9112e-09 AU
  Orbit Determination Parameters
   # obs. used (total)      1403  
   data-arc span      43915 days (120.23 yr)  
   first obs. used      1892-09-13  
   last obs. used      2012-12-08  
   planetary ephem.      DE405  
   SB-pert. ephem.      SB405-CPV-2  
   condition code      0  
   fit RMS      .57136  
   data source      ORB  
   producer      Otto Matic  
   solution date      2013-Mar-29 14:29:03  

Additional Information
 Earth MOID = .936088 AU 
 T_jup = 3.518 
[ show covariance matrix ]

Ephemeris | Orbit Diagram | Orbital Elements | Physical Parameters | Discovery Circumstances ]

Physical Parameter Table
Parameter Symbol Value Units Sigma Reference Notes
absolute magnitude H 9.47 mag n/a IRAS-A-FPA-3-RDR-IMPS-V6.0 IRAS observations used: 15
magnitude slope G -0.04   n/a PDS3 (MPC 17257) Fit
diameter diameter 72.63 km 5.7 IRAS-A-FPA-3-RDR-IMPS-V6.0 IRAS observations used: 15
rotation period rot_per 16.136 h n/a Asteroid Lightcurve DataBase (Rev. 2013-May-01) Published Reference List:
[Harris, A.W.; Young, J.W. (1989) Icarus 81, 314-364.]
[Hanus, J.; Durech, J.; Broz, M.; Warner, B.D.; et al. (2011) Astron. Astrophys. 530, A134.]
geometric albedo albedo 0.0546   0.010 IRAS-A-FPA-3-RDR-IMPS-V6.0 IRAS observations used: 15
B-V BV .717 mag .023 EAR-A-5-DDR-UBV-MEAN-VALUES-V1.1 #obs=2; phase (min.=5.23, mean=11.78, max.=18.33) deg.
U-B UB .341 mag .015 EAR-A-5-DDR-UBV-MEAN-VALUES-V1.1 #obs=2; phase (min.=5.23, mean=11.78, max.=18.33) deg.
Tholen spectral type spec_T C   n/a EAR-A-5-DDR-TAXONOMY-V4.0 used 2 color indices
SMASSII spectral type spec_B Ch   n/a EAR-A-5-DDR-TAXONOMY-V4.0 based on a high-resolution spectrum by Xu et al. (1995) or Bus and Binzel (2002)

163 Erigone          Discovered 1876-Apr-26 by Perrotin, J. at Toulouse
Reference: DISCOVERY.DBLast Updated: 2003-08-29

Alternate Designations
 1957 OT = A892 RA 
Ephemeris | Orbit Diagram | Orbital Elements | Physical Parameters | Discovery Circumstances ]
ABOUT SSD CREDITS/AWARDS PRIVACY/COPYRIGHT GLOSSARY LINKS
FirstGov 2013-May-21 19:22 UT
(server date/time)  
NASA Home Page
Site Manager:   Donald K. Yeomans
Webmaster  Alan B. Chamberlin